Regional Weather Roundup
Issued by NWS

Home | Current Version | Previous Version | Text Only | Print | Product List | Glossary On
Versions: 1 2 3 4 5 6 7 8 9 10 11 12 13 14 15 16 17 18 19 20 21 22 23 24 25 26 27 28 29 30 31 32 33 34 35 36 37 38 39 40 41 42 43 44 45 46 47 48 49 50
000
ASUS44 KOUN 230300
RWROK

WEATHER ROUNDUP FOR OKLAHOMA
NATIONAL WEATHER SERVICE NORMAN OK
900 PM CST MON JAN 22 2018

NOTE: "FAIR" INDICATES FEW OR NO CLOUDS BELOW 12,000 FEET WITH NO
      SIGNIFICANT WEATHER AND/OR OBSTRUCTIONS TO VISIBILITY.

OKZ001>007-009>012-014-015-017-230400-
NORTHWEST OKLAHOMA AND THE PANHANDLE

CITY           SKY/WX    TMP DP  RH WIND       PRES   REMARKS
GAGE           CLEAR     31  12  45 W8        30.10R WCI  23
GUYMON         CLEAR     31  11  43 W8        30.12S WCI  23
ENID/WOODRING  CLEAR     41  19  42 W18G24    30.03R WCI  32
$$

OKZ016-021>023-033>039-044-045-230400-
SOUTHWEST OKLAHOMA

CITY           SKY/WX    TMP DP  RH WIND       PRES   REMARKS
LAWTON/REGL    CLEAR     34  17  50 W5        30.11R WCI  30
LAWTON/FT SILL CLEAR     42  19  39 NW7       30.09R
FREDERICK      CLEAR     44  13  28 NW12      30.10R
CLINTON        CLEAR     31  11  43 W8        30.12R WCI  23
HOBART         CLEAR     34  13  41 NW10      30.13R WCI  26
ALTUS AFB      CLEAR     33   7  33 NW6       30.13R WCI  28
$$

OKZ018>020-024>031-230400-
CENTRAL OKLAHOMA

CITY           SKY/WX    TMP DP  RH WIND       PRES   REMARKS
OKLAHOMA CITY  PTCLDY    43  16  33 NW17      30.04S
OKC/WILEY POST CLEAR     44  17  33 NW14      30.05R
OKC/TINKER AFB CLEAR     45  17  32 NW20G26   30.03R
STILLWATER     CLEAR     42  18  37 W14G22    30.02R WCI  35
GUTHRIE        CLEAR     43  18  36 NW14G23   30.04R
$$

OKZ008-013-054>072-230400-
NORTHEAST OKLAHOMA

CITY           SKY/WX    TMP DP  RH WIND       PRES   REMARKS
TULSA          CLOUDY    45  21  38 NW16G25   29.95R
TULSA/JONES    PTCLDY    46  18  32 VRB6G21   29.96R
PONCA CITY     MOCLDY    42  19  39 NW14G24   30.00R WCI  35
BARTLESVILLE   CLOUDY    43  24  47 NW10G32   29.96R
MUSKOGEE       PTCLDY    40  26  57 W9        29.98R WCI  34
$$

OKZ032-040>043-046>053-073>077-230400-
SOUTH CENTRAL/SOUTHEAST OKLAHOMA

CITY           SKY/WX    TMP DP  RH WIND       PRES   REMARKS
MCALESTER      PTCLDY    43  26  51 SW9       30.02R
$$





USA.gov is the U.S. government's official web portal to all federal, state and local government web resources and services.